Location: Malanoce
(44.2500°N, 7.4667°E)
Time: 22:57:38
(UTC+00:00)

Cosmos 1092 Rocket - Pass Details

Date: 17 November 2025
Orbit: 953 x 994 km, 82.9° (Epoch: 09 December)

Event Time Altitude Azimuth Distance (km) Brightness Sun altitude
Rises 17:44:23 0° 358° (N) 3,691 7.0 -18.4°
Reaches altitude 10° 17:47:07 10° 6° (N) 2,733 6.2 -18.8°
Maximum altitude 17:52:55 39° 74° (ENE) 1,427 4.3 -19.9°
Enters shadow 17:54:58 30° 113° (ESE) 1,645 4.7 -20.2°
